#timestamp,LO_Frequency,Hit,StdDev 
1606237215.3,286047001.2,N
1606237235.1,286047000.4,N
1606237255.9,286046998.1,N
1606237275.7,286047000.8,N
1606237295.5,286047000.9,N
1606237315.4,286047001.7,N
1606237335.2,286047001.4,N
1606237355.1,286046999.7,N
1606237356.0,286046999.7,N
1606237375.8,286047000.3,N
1606237395.6,286046998.6,N
1606237415.5,286047000.5,N
1606237435.3,286047001.5,N
1606237455.1,286047002.3,N
1606237475.9,286047002.3,N
1606237495.7,286047001.6,N
1606237515.5,286047001.5,N
1606237535.4,286047001.4,N
1606237555.2,286047003.5,N
1606237575.1,286047002.0,N
1606237576.0,286047002.0,N
1606237595.8,286047001.8,N
1606237615.6,286047001.7,N
1606237635.5,286047001.8,N
1606237655.3,286047005.4,Y
1606237675.2,286047003.2,P
1606237695.9,286047003.9,P
1606237715.7,286047003.6,N
1606237735.6,286047001.7,N
1606237755.4,286047004.4,Y
1606237775.2,286046999.2,P
1606237795.1,286046998.6,N
1606237796.0,286046998.6,N
1606237815.8,286046999.8,N
1606237835.7,286047000.0,N
1606237855.5,286047002.7,N
1606237875.3,286047002.6,N
1606237895.2,286047002.6,N
1606237915.0,286047002.6,N
1606237915.9,286047002.6,N
1606237935.8,286047002.2,N
1606237955.6,286047000.7,N
1606237975.4,286046996.9,N
1606237995.3,286046998.9,N
1606238015.1,286046999.3,N
1606238035.8,286046998.8,N
1606238055.7,286046998.3,N
1606238075.5,286047001.2,N
1606238095.4,286046998.3,N
1606238115.2,286046999.3,N
1606238135.0,286046998.3,N
1606238135.9,286046998.3,N
1606238155.8,286047000.3,N
1606238175.6,286047000.9,N
1606238195.4,286047002.7,N
1606238215.3,286047000.2,N
1606238235.1,286047000.6,N
1606238255.9,286047002.8,N
1606238275.7,286046998.5,N
1606238295.5,286047000.1,N
1606238315.4,286047000.1,N
1606238335.2,286047000.4,N
1606238355.0,286046998.3,N
1606238355.9,286046998.3,N
1606238375.8,286046998.8,N
1606238395.6,286046998.3,N
1606238415.4,286046996.9,N
1606238435.3,286046996.8,N
1606238455.1,286046996.8,N
1606238475.9,286046997.8,N
1606238495.7,286046996.1,N
1606238515.5,286046993.8,Y
1606238535.4,286046997.3,P
1606238555.2,286046995.1,P
1606238575.0,286046995.7,N
1606238576.0,286046995.7,N
1606238595.8,286046993.7,Y
1606238615.6,286046997.0,P
1606238635.5,286046996.8,P
1606238655.3,286046997.1,P
1606238675.1,286046997.5,Y
1606238695.9,286047000.0,P
1606238715.7,286047001.0,N
1606238735.6,286046999.7,N
1606238755.4,286047001.0,N
1606238775.2,286047000.7,N
1606238795.1,286046998.1,N
1606238796.0,286046998.1,N
1606238815.8,286047001.0,N
1606238835.6,286047000.8,N
1606238855.5,286046999.9,N
1606238875.3,286047002.7,N
1606238895.2,286047001.2,N
1606238915.9,286047000.8,N
1606238935.7,286047002.8,N
1606238955.6,286047000.2,N
1606238975.4,286047000.7,N
1606238995.2,286047000.6,N
1606239015.1,286047001.1,N
1606239016.0,286047001.1,N
1606239035.8,286047000.7,N
1606239055.7,286047000.4,N
1606239075.5,286047000.7,N
1606239095.3,286047000.9,N
1606239115.2,286047000.4,N
1606239135.9,286047000.6,N
1606239155.7,286047000.5,N
1606239175.6,286047000.1,N
1606239195.4,286047000.2,N
1606239215.2,286047000.3,N
1606239235.1,286047000.0,N
1606239236.0,286047000.0,N
1606239255.8,286047000.9,N
1606239275.7,286046998.6,N
1606239295.5,286046998.2,N
1606239315.3,286047001.2,N
1606239335.2,286046999.0,N
1606239355.0,286046998.7,N
1606239355.9,286046998.7,N
1606239375.8,286046998.2,N
1606239395.6,286046996.6,Y
1606239415.4,286046998.7,P
1606239435.3,286046999.0,N
1606239455.1,286047000.9,N
1606239475.8,286046999.9,N
1606239495.7,286047000.3,N
1606239515.5,286047000.6,N
1606239535.4,286046999.8,N
1606239555.2,286047002.0,N
1606239575.0,286047002.5,N
1606239575.9,286047002.5,N
1606239595.8,286047002.6,N
1606239615.6,286047001.8,N
1606239635.4,286047002.2,N
1606239655.3,286047000.2,N
1606239675.1,286047002.8,N
1606239695.9,286046999.8,N
1606239715.7,286047002.8,N
1606239735.5,286047002.5,N
1606239755.4,286047002.4,N
1606239775.2,286047002.5,N
1606239795.0,286047002.4,N
1606239795.9,286047002.4,N
1606239815.8,286047002.1,N
1606239835.6,286046999.8,N
1606239855.5,286047002.2,N
1606239875.3,286047011.9,Y
1606239895.1,286047002.7,P
1606239915.9,286047002.6,P
1606239935.7,286047002.1,P
1606239955.5,286047002.5,Y
1606239975.4,286046998.4,P
1606239995.2,286047000.7,N
1606240015.1,286047001.2,N
1606240016.0,286047001.2,N
1606240065.8,286046999.8,E
1606240075.7,286047000.1,N
1606240095.6,286047002.8,P
1606240115.4,286047002.2,N
1606240135.2,286047002.0,N
1606240155.1,286047001.8,N
1606240156.0,286047001.8,N
1606240175.8,286047002.0,N
1606240195.7,286047002.4,Y
1606240215.5,286046999.9,P
1606240235.3,286047000.8,N
1606240255.2,286046998.6,N
1606240275.0,286046998.3,N
1606240275.9,286046998.3,N
1606240295.8,286047001.2,N
1606240315.6,286047001.0,N
1606240335.4,286047000.8,N
1606240355.3,286047000.1,N
1606240375.1,286047002.7,N
1606240395.8,286047002.4,N
1606240415.7,286047000.2,N
1606240435.5,286046999.8,N
1606240455.4,286047001.0,N
1606240475.2,286047000.7,N
1606240495.0,286047000.6,N
1606240495.9,286047000.6,N
1606240515.8,286047000.5,N
1606240535.6,286047002.1,N
1606240555.4,286047000.4,N
1606240575.3,286047000.2,N
1606240595.1,286046999.7,N
1606240615.8,286047000.1,N
1606240635.7,286047002.6,N
1606240655.5,286047002.0,N
1606240675.4,286047002.8,N
1606240695.2,286047000.1,N
1606240715.0,286046999.9,N
1606240715.9,286046999.9,N
1606240735.8,286047000.0,N
1606240755.6,286047001.0,N
1606240775.4,286047000.3,N
1606240795.3,286047000.0,N
